Location: Newark
(25.0000°N, 73.5000°E)
Time: 10:56:31
(UTC+00:00)

Vanguard 2 - Visible Passes

Search period start: 01 March 2021 00:00
Search period end: 11 March 2021 00:00
Orbit: 552 x 2938 km, 32.9° (Epoch: 28 February)

Date Brightness Start Highest point End Pass type
(mag) Time Alt. Az. Time Alt. Az. Time Alt. Az.
01 Mar 10.1 21:43:22 63° ESE 21:43:22 63° ESE 21:58:25 10° ENE visible
01 Mar 10.3 23:44:46 33° W 23:54:03 74° NNW 00:12:10 10° ENE visible
02 Mar 11.6 19:58:42 15° E 19:58:42 15° E 20:01:17 10° E visible
02 Mar 9.9 22:00:05 78° ESE 22:00:05 78° ESE 22:16:43 10° ENE visible
03 Mar 10.4 00:01:29 26° W 00:12:33 69° N 00:30:30 10° ENE visible
03 Mar 11.3 20:15:21 22° E 20:15:21 22° E 20:20:12 10° ENE visible
03 Mar 9.8 22:16:45 86° WNW 22:17:00 87° NNW 22:34:58 10° ENE visible
04 Mar 10.5 00:18:08 19° W 00:31:08 66° N 00:48:54 10° ENE visible
04 Mar 11.0 20:31:59 28° E 20:31:59 28° E 20:38:46 10° ENE visible
04 Mar 9.8 22:33:22 71° WNW 22:35:14 77° NNW 22:53:16 10° ENE visible
05 Mar 10.6 00:34:45 13° WNW 00:49:46 66° N 01:07:22 10° E visible
05 Mar 10.8 20:48:33 36° ENE 20:48:33 36° ENE 20:57:09 10° ENE visible
05 Mar 9.9 22:49:56 57° WNW 22:53:36 71° NNW 23:11:37 10° ENE visible
06 Mar 10.6 00:52:03 10° WNW 01:08:22 67° N 01:25:49 10° E visible
06 Mar 10.5 21:05:07 45° ENE 21:05:07 45° ENE 21:15:27 10° ENE visible
06 Mar 10.0 23:06:30 45° WNW 23:12:06 66° N 23:30:04 10° ENE visible
07 Mar 10.2 21:21:39 54° ENE 21:21:39 54° ENE 21:33:45 10° ENE visible
07 Mar 10.2 23:23:02 35° WNW 23:30:39 64° N 23:48:37 10° E visible
08 Mar 11.6 19:36:48 12° ENE 19:36:48 12° ENE 19:37:31 10° ENE visible
08 Mar 10.0 21:38:11 61° NE 21:38:11 61° NE 21:52:06 10° ENE visible
08 Mar 10.4 23:39:34 27° WNW 23:49:12 65° N 00:07:11 10° E visible
09 Mar 11.4 19:53:20 17° ENE 19:53:20 17° ENE 19:55:51 10° ENE visible
09 Mar 9.9 21:54:43 65° N 21:54:43 65° N 22:10:33 10° ENE visible
09 Mar 10.4 23:56:06 20° WNW 00:07:43 68° N 00:25:46 10° E visible
10 Mar 11.2 20:09:53 22° ENE 20:09:53 22° ENE 20:14:07 10° ENE visible
10 Mar 9.8 22:11:15 62° NNW 22:12:12 63° N 22:29:05 10° ENE visible
